This is the latest recevied weather packets stored in our database for station/object AF9W-5. If no packets are shown the sender has not sent any weather packets the latest 10 day(s).
| Time | Temp. | Humidity | Pressure | Rain* | Wind** | Luminosity | Snow |
|---|---|---|---|---|---|---|---|
| 1777552744 | 15° C | 34% | 1011.4 hPa | 0 mm | - | 1 W/m² | - |
| 1777552441 | 15° C | 36% | 1011.5 hPa | 0 mm | - | 1 W/m² | - |
| 1777552137 | 15° C | 34% | 1011.5 hPa | 0 mm | - | 0 W/m² | - |
| 1777551532 | 15.56° C | 33% | 1011.1 hPa | 0 mm | - | 0 W/m² | - |
| 1777549412 | 16.11° C | 31% | 1011.5 hPa | 0 mm | - | 0 W/m² | - |
| 1777548503 | 15.56° C | 33% | 1011.3 hPa | 0 mm | - | 0 W/m² | - |
| 1777547896 | 15.56° C | 33% | 1011.3 hPa | 0 mm | - | 0 W/m² | - |
| 1777546380 | 15.56° C | 33% | 1011.8 hPa | 0 mm | - | 0 W/m² | - |
| 1777546077 | 15.56° C | 33% | 1011.9 hPa | 0 mm | - | 0 W/m² | - |
| 1777545773 | 15.56° C | 33% | 1012 hPa | 0 mm | - | 0 W/m² | - |
| 1777545470 | 15.56° C | 33% | 1011.9 hPa | 0 mm | - | 0 W/m² | - |
| 1777545167 | 15.56° C | 32% | 1012.2 hPa | 0 mm | - | 0 W/m² | - |
| 1777544865 | 16.11° C | 31% | 1012.2 hPa | 0 mm | - | 0 W/m² | - |
| 1777544560 | 16.11° C | 31% | 1012.1 hPa | 0 mm | - | 0 W/m² | - |
| 1777544257 | 16.11° C | 30% | 1011.9 hPa | 0 mm | - | 0 W/m² | - |
| 1777543954 | 15.56° C | 31% | 1011.9 hPa | 0 mm | - | 0 W/m² | - |
| 1777543651 | 16.11° C | 30% | 1012 hPa | 0 mm | - | 0 W/m² | - |
| 1777543042 | 16.67° C | 29% | 1012.3 hPa | 0 mm | - | 0 W/m² | - |
| 1777542739 | 16.67° C | 29% | 1012.4 hPa | 0 mm | - | 0 W/m² | - |
| 1777542436 | 16.67° C | 29% | 1012.4 hPa | 0 mm | - | 0 W/m² | - |
| 1777542132 | 16.67° C | 28% | 1012.3 hPa | 0 mm | - | 0 W/m² | - |
| 1777541829 | 17.22° C | 27% | 1012.2 hPa | 0 mm | - | 0 W/m² | - |
| 1777541526 | 17.22° C | 28% | 1012.9 hPa | 0 mm | - | 0 W/m² | - |
| 1777541222 | 16.67° C | 29% | 1012.8 hPa | 0 mm | - | 0 W/m² | - |
| 1777540919 | 16.67° C | 28% | 1012.5 hPa | 0 mm | - | 0 W/m² | - |
* Rain latest hour (hover to see other rain measurements)
** Current wind speed in m/s (hover to see current wind gust speed)